PRAETORIAN SDA_618

Last updated on Sat Jun 27 2026 00:03:47 GMT+0000 (Coordinated Universal Time)

1 65581U 25203S 26177.44424983 .00000028 00000+0 14181-4 0 9996 2 65581 81.3021 1.9070 0010122 162.7241 197.4262 13.84669977 39999
UTC large
Height (km)
Speed (km/s)
/
Latitude / Longitude
Inclination (degrees)
Orbital Period (minutes)
Azimuth
Elevation
Range (km)
Doppler Factor

Next 0 passes for location: London (51.5072 / 0.1276)

No passes found over London.
PRAETORIAN SDA_618